Location: Ferques
(50.8300°N, 1.7599°E)
Time: 17:40:56
(UTC+00:00)

Cosmos 1400 Rocket - Visible Passes

Search period start: 21 May 2026 00:00
Search period end: 31 May 2026 00:00
Orbit: 474 x 505 km, 81.1° (Epoch: 21 May)

Date Brightness Start Highest point End Pass type
(mag) Time Alt. Az. Time Alt. Az. Time Alt. Az.
21 May 5.3 01:12:15 10° NNE 01:14:56 18° ENE 01:17:36 10° ESE visible
21 May 3.0 02:46:52 10° NNW 02:50:30 45° W 02:54:06 10° S visible
22 May 5.5 00:49:27 10° NNE 00:51:25 13° ENE 00:53:21 10° E visible
22 May 2.6 02:23:26 10° NNW 02:27:12 67° W 02:30:56 10° S visible
23 May 2.7 02:00:03 10° N 02:03:52 84° ENE 02:07:33 10° SSE visible
24 May 3.2 01:36:44 10° N 01:40:29 57° ENE 01:43:58 11° SSE visible
25 May 3.9 01:13:28 10° N 01:17:04 39° ENE 01:20:25 11° SE visible
25 May 4.3 02:49:23 10° NW 02:52:07 19° W 02:54:49 10° SW visible
26 May 4.4 00:50:17 10° N 00:53:36 28° ENE 00:56:53 10° SE visible
26 May 3.8 02:25:40 10° NW 02:28:52 27° W 02:31:20 14° SW visible
27 May 4.9 00:27:11 10° NNE 00:30:06 21° ENE 00:32:59 10° ESE visible
27 May 3.3 02:02:04 10° NNW 02:05:35 38° W 02:07:50 19° SSW visible
28 May 5.3 00:04:15 10° NNE 00:06:34 15° ENE 00:08:51 10° E visible
28 May 2.8 01:38:33 10° NNW 01:42:15 55° W 01:44:23 23° SSW visible
28 May 5.4 23:41:42 10° NE 23:42:59 11° ENE 23:44:14 10° ENE visible
29 May 2.5 01:15:06 10° NNW 01:18:54 82° WSW 01:20:57 25° S visible
30 May 2.8 00:51:44 10° N 00:55:29 68° ENE 00:57:32 25° SSE visible
30 May 4.8 02:28:54 10° WNW 02:30:14 12° W 02:31:34 10° WSW visible
